STARLINK-32096, 59698

Orbit data source: Space-Track

STARLINK-32096, 59698 is a payload satellite owned by SpaceX/Seattle (US) in LEO that was launched on Wed, 08 May 2024 UTC via an FALCON 9 launch vehicle from the Air Force Eastern Test Range (AFETR). Payload-class satellites include a variety of spacecraft equipped with specific instruments for various scientific and technological missions. These include communications satellites like Starlink; space stations such as the ISS; scientific satellites like the Hubble; Earth observation satellites from companies like Planet Labs, Umbra, and HawkEye 360; GPS; miniature CubeSats for education and research; and military/defense satellites.

Loading next visibility...
Identifier
59698, 2024-086S
Orbit
LEO
Country
Flag of USUS
Related business
Manufacturer
SpaceX/Seattle
Mission
Operational Commercial Communications
Bus & Motor
STARLINK V2M, Unknown motor
Mass
730 kg wet, ~700 kg dry
Launch date (UTC)
2024-05-08 (2 years ago)
Launch vehicle
FALCON 9
Launch site
Air Force Eastern Test Range (AFETR)
Object type
Payload
Rocket body
Debris
Shape & HBR
Box + 2 Pan, 17.7 m
Radar Cross Section
33.884 m², Large (>1 m²)

Expand to show TLE details & history
Last TLE update: 2 days ago

TLE from 2 days ago
0 STARLINK-32096
1 59698U 24086S   26171.35373130  .00000176  00000-0  15911-4 0  9994
2 59698  43.0017 200.0717 0001380 266.0283  94.0411 15.27564518119813
Epoch: 2026-06-20T08:29Z
TLE epoch observation values (Epoch: 2026-06-20T08:29:22.384Z)
Latitude
-0.00001°
Longitude
164.15886°
Altitude
482.938 km
Speed
7.626 km/s
True Right ascension
13h 20m 17s
True Declination
0° 00' 00"
Sunlit
Object was in daylight at epoch
Visualization orbit readout
Latitude
Unknown
Longitude
Unknown
Altitude
Unknown
Speed
Unknown
Apparent Right ascension
Unknown
Apparent Declination
Unknown
Sunlit
N/A
Visualization observer readout
Local Sidereal Time
21:24:45
Azimuth
Unknown
Elevation
Unknown
Doppler factor
Unknown
Orbital elements
Apogee altitude
485.987 km
Perigee altitude
484.093 km
Semi-major axis
6,863.177 km
Eccentricity
0.00014
Inclination
43.0017°
RAAN
200.0717°
Arg. of periapsis
266.0283°
True anomaly
94.05687°
Mean anomaly
94.0411°
Eccentric anomaly
94.04899°
Mean motion
3.81729 °/min
Orbital period
94.31 mins
BSTAR
0.000015911
Loading maneuver chart data...
Computing Atmospheric mass density...
Loading historical data...
Loading historical data...
Loading historical data...
Loading historical data...
Loading historical data...
Loading historical data...
Loading historical data...

Documentation

Showing up to 5 results
|